Time,TemperatureF,DewpointF,PressureIn,WindDirection,WindDirectionDegrees,WindSpeedMPH,WindSpeedGustMPH,Humidity,HourlyPrecipIn,Conditions,Clouds,dailyrainin,SoftwareType,DateUTC
2013-01-13 00:03:00,34.0,28.0,29.93,WSW,243,3.0,7.0,78,0.00,,,0.01,,2013-01-13 05:03:00,
2013-01-13 00:12:00,34.0,28.0,29.93,WSW,243,3.0,7.0,78,0.00,,,0.01,,2013-01-13 05:12:00,
2013-01-13 00:22:00,34.0,28.0,29.93,WSW,240,3.0,6.0,80,0.00,,,0.01,,2013-01-13 05:22:00,
2013-01-13 00:32:00,33.0,28.0,29.92,WSW,257,0.0,4.0,83,0.00,,,0.01,,2013-01-13 05:32:00,
2013-01-13 00:42:00,33.0,28.0,29.92,WSW,257,0.0,4.0,83,0.00,,,0.01,,2013-01-13 05:42:00,
2013-01-13 00:52:00,33.0,28.0,29.92,WSW,252,0.0,3.0,83,0.00,,,0.01,,2013-01-13 05:52:00,
2013-01-13 01:03:00,33.0,29.0,29.91,WSW,239,0.0,3.0,85,0.00,,,0.01,,2013-01-13 06:03:00,
2013-01-13 01:12:00,32.0,28.0,29.91,WSW,238,2.0,2.0,86,0.00,,,0.01,,2013-01-13 06:12:00,
2013-01-13 01:22:00,32.0,28.0,29.91,WSW,238,2.0,2.0,86,0.00,,,0.01,,2013-01-13 06:22:00,
2013-01-13 01:32:00,32.0,29.0,29.91,SSW,200,1.0,3.0,87,0.00,,,0.01,,2013-01-13 06:32:00,
2013-01-13 01:42:00,32.0,29.0,29.91,SSW,200,1.0,3.0,87,0.00,,,0.01,,2013-01-13 06:42:00,
2013-01-13 01:52:00,32.0,29.0,29.91,West,272,2.0,3.0,87,0.00,,,0.01,,2013-01-13 06:52:00,
2013-01-13 02:02:00,32.0,29.0,29.90,West,277,1.0,3.0,88,0.00,,,0.01,,2013-01-13 07:02:00,
2013-01-13 02:12:00,32.0,29.0,29.90,West,277,1.0,3.0,88,0.00,,,0.01,,2013-01-13 07:12:00,
2013-01-13 02:22:00,32.0,29.0,29.90,West,277,0.0,3.0,87,0.00,,,0.01,,2013-01-13 07:22:00,
2013-01-13 02:32:00,32.0,29.0,29.91,West,277,0.0,2.0,88,0.00,,,0.01,,2013-01-13 07:32:00,
2013-01-13 02:42:00,32.0,29.0,29.91,West,277,0.0,2.0,88,0.00,,,0.01,,2013-01-13 07:42:00,
2013-01-13 02:52:00,32.0,29.0,29.90,West,277,2.0,2.0,89,0.00,,,0.01,,2013-01-13 07:52:00,
2013-01-13 03:02:00,32.0,29.0,29.89,West,277,0.0,2.0,89,0.00,,,0.01,,2013-01-13 08:02:00,
2013-01-13 03:12:00,32.0,29.0,29.89,West,277,0.0,2.0,89,0.00,,,0.01,,2013-01-13 08:12:00,
2013-01-13 03:22:00,31.0,28.0,29.89,West,277,0.0,0.0,90,0.00,,,0.01,,2013-01-13 08:22:00,
2013-01-13 03:32:00,31.0,28.0,29.87,West,278,0.0,3.0,90,0.00,,,0.01,,2013-01-13 08:32:00,
2013-01-13 03:42:00,31.0,28.0,29.87,West,278,0.0,3.0,90,0.00,,,0.01,,2013-01-13 08:42:00,
2013-01-13 03:52:00,31.0,29.0,29.88,West,278,0.0,2.0,91,0.00,,,0.01,,2013-01-13 08:52:00,
2013-01-13 04:02:00,31.0,29.0,29.89,West,278,1.0,3.0,91,0.00,,,0.01,,2013-01-13 09:02:00,
2013-01-13 04:12:00,31.0,29.0,29.88,West,277,1.0,3.0,91,0.00,,,0.01,,2013-01-13 09:12:00,
2013-01-13 04:22:00,31.0,29.0,29.88,West,277,1.0,3.0,91,0.00,,,0.01,,2013-01-13 09:22:00,
2013-01-13 04:32:00,31.0,29.0,29.88,West,277,0.0,3.0,91,0.00,,,0.01,,2013-01-13 09:32:00,
2013-01-13 04:42:00,31.0,29.0,29.88,West,277,0.0,3.0,91,0.00,,,0.01,,2013-01-13 09:42:00,
2013-01-13 04:52:00,31.0,29.0,29.86,West,277,0.0,3.0,91,0.00,,,0.01,,2013-01-13 09:52:00,
2013-01-13 05:02:00,31.0,28.0,29.87,West,277,1.0,3.0,90,0.00,,,0.01,,2013-01-13 10:02:00,
2013-01-13 05:12:00,31.0,28.0,29.87,West,277,1.0,3.0,90,0.00,,,0.01,,2013-01-13 10:12:00,
2013-01-13 05:22:00,31.0,29.0,29.83,West,280,1.0,3.0,91,0.00,,,0.01,,2013-01-13 10:22:00,
2013-01-13 05:32:00,31.0,28.0,29.83,West,280,0.0,2.0,90,0.00,,,0.01,,2013-01-13 10:32:00,
2013-01-13 05:42:00,31.0,28.0,29.83,West,280,0.0,2.0,90,0.00,,,0.01,,2013-01-13 10:42:00,
2013-01-13 05:52:00,31.0,28.0,29.84,West,280,0.0,3.0,90,0.00,,,0.01,,2013-01-13 10:52:00,
2013-01-13 06:02:00,31.0,29.0,29.83,West,280,0.0,2.0,91,0.00,,,0.01,,2013-01-13 11:02:00,
2013-01-13 06:12:00,31.0,29.0,29.83,West,280,0.0,2.0,91,0.00,,,0.01,,2013-01-13 11:12:00,
2013-01-13 06:22:00,31.0,29.0,29.83,West,280,0.0,3.0,91,0.00,,,0.01,,2013-01-13 11:22:00,
2013-01-13 06:32:00,31.0,29.0,29.86,West,280,0.0,3.0,91,0.00,,,0.01,,2013-01-13 11:32:00,
2013-01-13 06:42:00,31.0,29.0,29.86,West,280,0.0,3.0,91,0.00,,,0.01,,2013-01-13 11:42:00,
2013-01-13 06:52:00,31.0,29.0,29.86,West,280,0.0,0.0,91,0.00,,,0.01,,2013-01-13 11:52:00,
2013-01-13 07:03:00,31.0,29.0,29.86,West,280,0.0,2.0,91,0.00,,,0.01,,2013-01-13 12:03:00,
2013-01-13 07:12:00,31.0,29.0,29.86,West,280,0.0,2.0,91,0.00,,,0.01,,2013-01-13 12:12:00,
2013-01-13 07:22:00,31.0,29.0,29.87,West,280,1.0,3.0,91,0.00,,,0.01,,2013-01-13 12:22:00,
2013-01-13 07:33:00,31.0,29.0,29.87,West,280,0.0,2.0,91,0.00,,,0.01,,2013-01-13 12:33:00,
2013-01-13 07:42:00,31.0,29.0,29.87,West,280,0.0,2.0,91,0.00,,,0.01,,2013-01-13 12:42:00,
2013-01-13 07:52:00,31.0,29.0,29.87,West,280,0.0,3.0,91,0.00,,,0.01,,2013-01-13 12:52:00,
2013-01-13 08:03:00,31.0,29.0,29.86,West,280,0.0,2.0,91,0.00,,,0.01,,2013-01-13 13:03:00,
2013-01-13 08:12:00,31.0,29.0,29.86,West,280,0.0,2.0,91,0.00,,,0.01,,2013-01-13 13:12:00,
2013-01-13 08:22:00,31.0,29.0,29.86,West,280,1.0,2.0,91,0.00,,,0.01,,2013-01-13 13:22:00,
2013-01-13 08:33:00,31.0,29.0,29.88,West,280,0.0,0.0,91,0.00,,,0.01,,2013-01-13 13:33:00,
2013-01-13 08:42:00,31.0,29.0,29.88,West,280,0.0,0.0,91,0.00,,,0.01,,2013-01-13 13:42:00,
2013-01-13 08:53:00,31.0,29.0,29.88,West,280,0.0,0.0,91,0.00,,,0.01,,2013-01-13 13:53:00,
2013-01-13 09:03:00,31.0,29.0,29.89,West,280,0.0,1.0,91,0.00,,,0.01,,2013-01-13 14:03:00,
2013-01-13 09:12:00,31.0,29.0,29.89,West,280,0.0,1.0,91,0.00,,,0.01,,2013-01-13 14:12:00,
2013-01-13 09:22:00,31.0,29.0,29.91,West,280,0.0,2.0,91,0.00,,,0.01,,2013-01-13 14:22:00,
2013-01-13 09:33:00,31.0,29.0,29.90,West,280,1.0,3.0,91,0.00,,,0.01,,2013-01-13 14:33:00,
2013-01-13 09:43:00,31.0,29.0,29.90,West,280,1.0,3.0,91,0.00,,,0.01,,2013-01-13 14:43:00,
2013-01-13 09:52:00,31.0,29.0,29.90,West,280,0.0,3.0,91,0.00,,,0.01,,2013-01-13 14:52:00,
2013-01-13 10:03:00,31.0,29.0,29.90,West,280,1.0,3.0,91,0.00,,,0.01,,2013-01-13 15:03:00,
2013-01-13 10:12:00,31.0,29.0,29.90,West,280,1.0,3.0,91,0.00,,,0.01,,2013-01-13 15:12:00,
2013-01-13 10:23:00,31.0,29.0,29.89,West,280,1.0,3.0,91,0.00,,,0.01,,2013-01-13 15:23:00,
2013-01-13 10:33:00,31.0,29.0,29.91,West,279,0.0,3.0,91,0.00,,,0.01,,2013-01-13 15:33:00,
2013-01-13 10:43:00,31.0,29.0,29.91,West,279,0.0,3.0,91,0.00,,,0.01,,2013-01-13 15:43:00,
2013-01-13 10:53:00,31.0,29.0,29.92,SW,234,2.0,3.0,91,0.00,,,0.01,,2013-01-13 15:53:00,
2013-01-13 11:03:00,31.0,29.0,29.91,SW,234,3.0,3.0,91,0.00,,,0.01,,2013-01-13 16:03:00,
2013-01-13 11:12:00,31.0,29.0,29.91,SW,234,3.0,3.0,91,0.00,,,0.01,,2013-01-13 16:12:00,
2013-01-13 11:23:00,31.0,29.0,29.91,SW,233,0.0,3.0,91,0.00,,,0.01,,2013-01-13 16:23:00,
2013-01-13 11:33:00,31.0,29.0,29.90,SW,231,2.0,4.0,91,0.00,,,0.01,,2013-01-13 16:33:00,
2013-01-13 11:43:00,31.0,29.0,29.90,SW,231,2.0,4.0,91,0.00,,,0.01,,2013-01-13 16:43:00,
2013-01-13 11:53:00,31.0,29.0,29.90,South,169,1.0,3.0,92,0.00,,,0.01,,2013-01-13 16:53:00,
2013-01-13 12:03:00,31.0,29.0,29.91,SSW,197,2.0,5.0,91,0.00,,,0.01,,2013-01-13 17:03:00,
2013-01-13 12:12:00,31.0,29.0,29.91,SSW,197,2.0,5.0,91,0.00,,,0.01,,2013-01-13 17:12:00,
2013-01-13 12:22:00,31.0,29.0,29.89,South,180,4.0,5.0,92,0.01,,,0.02,,2013-01-13 17:22:00,
2013-01-13 12:33:00,31.0,29.0,29.90,SSE,166,0.0,7.0,91,0.01,,,0.02,,2013-01-13 17:33:00,
2013-01-13 12:42:00,31.0,29.0,29.90,SSE,166,0.0,7.0,91,0.01,,,0.02,,2013-01-13 17:42:00,
2013-01-13 12:53:00,31.0,29.0,29.88,SSW,210,1.0,5.0,91,0.01,,,0.01,,2013-01-13 17:53:00,
2013-01-13 13:03:00,31.0,29.0,29.87,South,191,2.0,6.0,91,0.01,,,0.01,,2013-01-13 18:03:00,
2013-01-13 13:12:00,31.0,29.0,29.87,South,191,2.0,6.0,91,0.01,,,0.01,,2013-01-13 18:12:00,
2013-01-13 13:23:00,32.0,30.0,29.85,WSW,252,3.0,5.0,91,0.00,,,0.01,,2013-01-13 18:23:00,
2013-01-13 13:33:00,32.0,30.0,29.85,WSW,248,2.0,6.0,91,0.00,,,0.01,,2013-01-13 18:33:00,
2013-01-13 13:43:00,32.0,30.0,29.85,WSW,248,2.0,6.0,91,0.00,,,0.01,,2013-01-13 18:43:00,
2013-01-13 13:53:00,32.0,30.0,29.86,SW,233,1.0,4.0,91,0.00,,,0.01,,2013-01-13 18:53:00,
2013-01-13 14:03:00,32.0,29.0,29.86,SSW,210,3.0,5.0,90,0.00,,,0.01,,2013-01-13 19:03:00,
2013-01-13 14:12:00,32.0,29.0,29.86,SSW,210,3.0,5.0,90,0.00,,,0.01,,2013-01-13 19:12:00,
2013-01-13 14:22:00,32.0,29.0,29.86,WSW,247,3.0,7.0,90,0.00,,,0.01,,2013-01-13 19:22:00,
2013-01-13 14:33:00,32.0,29.0,29.86,SW,222,3.0,6.0,89,0.00,,,0.01,,2013-01-13 19:33:00,
2013-01-13 14:43:00,32.0,29.0,29.86,SW,222,3.0,6.0,89,0.00,,,0.01,,2013-01-13 19:43:00,
2013-01-13 14:53:00,32.0,29.0,29.85,WSW,255,2.0,5.0,89,0.00,,,0.01,,2013-01-13 19:53:00,
2013-01-13 15:03:00,32.0,29.0,29.86,WSW,249,3.0,6.0,89,0.00,,,0.01,,2013-01-13 20:03:00,
2013-01-13 15:12:00,32.0,29.0,29.86,WSW,249,3.0,6.0,89,0.00,,,0.01,,2013-01-13 20:12:00,
2013-01-13 15:22:00,32.0,29.0,29.88,WNW,288,2.0,4.0,89,0.00,,,0.01,,2013-01-13 20:22:00,
2013-01-13 15:33:00,32.0,29.0,29.90,WSW,247,1.0,9.0,87,0.00,,,0.01,,2013-01-13 20:33:00,
2013-01-13 15:43:00,32.0,29.0,29.90,WSW,247,1.0,9.0,87,0.00,,,0.01,,2013-01-13 20:43:00,
2013-01-13 15:53:00,31.0,28.0,29.90,South,170,1.0,4.0,88,0.00,,,0.01,,2013-01-13 20:53:00,
2013-01-13 16:03:00,31.0,28.0,29.90,SSW,209,3.0,6.0,89,0.00,,,0.01,,2013-01-13 21:03:00,
2013-01-13 16:12:00,31.0,28.0,29.90,SSW,209,3.0,6.0,89,0.00,,,0.01,,2013-01-13 21:12:00,
2013-01-13 16:23:00,31.0,28.0,29.90,South,184,4.0,5.0,89,0.00,,,0.01,,2013-01-13 21:23:00,
2013-01-13 16:33:00,31.0,28.0,29.90,North,354,3.0,14.0,89,0.00,,,0.01,,2013-01-13 21:33:00,
2013-01-13 16:43:00,31.0,28.0,29.90,North,354,3.0,14.0,89,0.00,,,0.01,,2013-01-13 21:43:00,
2013-01-13 16:53:00,30.0,27.0,29.90,North,0,3.0,6.0,88,0.00,,,0.01,,2013-01-13 21:53:00,
2013-01-13 17:02:00,30.0,27.0,29.90,North,359,1.0,5.0,88,0.00,,,0.01,,2013-01-13 22:02:00,
2013-01-13 17:12:00,30.0,27.0,29.90,North,359,1.0,5.0,88,0.00,,,0.01,,2013-01-13 22:12:00,
2013-01-13 17:22:00,30.0,27.0,29.91,WNW,300,3.0,5.0,88,0.00,,,0.01,,2013-01-13 22:22:00,
2013-01-13 17:33:00,30.0,27.0,29.88,North,355,0.0,6.0,88,0.00,,,0.01,,2013-01-13 22:33:00,
2013-01-13 17:43:00,30.0,27.0,29.88,North,355,0.0,6.0,88,0.00,,,0.01,,2013-01-13 22:43:00,
2013-01-13 17:53:00,30.0,27.0,29.86,North,358,6.0,6.0,88,0.00,,,0.01,,2013-01-13 22:53:00,
2013-01-13 18:02:00,29.0,26.0,29.86,North,358,5.0,7.0,88,0.00,,,0.01,,2013-01-13 23:02:00,
2013-01-13 18:12:00,29.0,26.0,29.86,North,358,5.0,7.0,88,0.00,,,0.01,,2013-01-13 23:12:00,
2013-01-13 18:23:00,29.0,26.0,29.87,North,1,4.0,5.0,87,0.00,,,0.01,,2013-01-13 23:23:00,
2013-01-13 18:33:00,29.0,26.0,29.88,North,359,2.0,4.0,88,0.00,,,0.01,,2013-01-13 23:33:00,
2013-01-13 18:42:00,29.0,26.0,29.88,North,359,2.0,4.0,88,0.00,,,0.01,,2013-01-13 23:42:00,
2013-01-13 18:53:00,29.0,26.0,29.88,North,0,3.0,3.0,88,0.00,,,0.01,,2013-01-13 23:53:00,
2013-01-13 19:03:00,29.0,26.0,29.89,North,0,0.0,3.0,88,0.00,,,0.01,,2013-01-14 00:03:00,
2013-01-13 19:12:00,29.0,26.0,29.89,North,0,0.0,3.0,88,0.00,,,0.01,,2013-01-14 00:12:00,
2013-01-13 19:22:00,29.0,26.0,29.89,North,0,0.0,3.0,88,0.00,,,0.01,,2013-01-14 00:22:00,
2013-01-13 19:33:00,29.0,26.0,29.89,North,0,1.0,3.0,89,0.00,,,0.01,,2013-01-14 00:33:00,
2013-01-13 19:43:00,29.0,26.0,29.89,North,0,1.0,3.0,89,0.00,,,0.01,,2013-01-14 00:43:00,
2013-01-13 19:53:00,29.0,26.0,29.90,West,275,1.0,2.0,89,0.00,,,0.01,,2013-01-14 00:53:00,
2013-01-13 20:03:00,29.0,26.0,29.91,West,275,0.0,3.0,90,0.00,,,0.01,,2013-01-14 01:03:00,
2013-01-13 20:12:00,29.0,26.0,29.91,West,275,0.0,3.0,90,0.00,,,0.01,,2013-01-14 01:12:00,
2013-01-13 20:22:00,29.0,26.0,29.89,SW,226,4.0,7.0,90,0.00,,,0.01,,2013-01-14 01:22:00,
2013-01-13 20:32:00,29.0,26.0,29.91,SW,233,5.0,190.0,88,0.00,,,0.01,,2013-01-14 01:32:00,
2013-01-13 20:42:00,29.0,26.0,29.91,SW,233,5.0,190.0,88,0.00,,,0.01,,2013-01-14 01:42:00,
2013-01-13 20:53:00,29.0,26.0,29.91,SW,233,0.0,9.0,87,0.00,,,0.01,,2013-01-14 01:53:00,
2013-01-13 21:03:00,29.0,25.0,29.91,WSW,251,7.0,10.0,86,0.00,,,0.01,,2013-01-14 02:03:00,
2013-01-13 21:12:00,29.0,25.0,29.90,WSW,244,2.0,9.0,84,0.00,,,0.01,,2013-01-14 02:12:00,
2013-01-13 21:22:00,29.0,25.0,29.90,WSW,244,2.0,9.0,84,0.00,,,0.01,,2013-01-14 02:22:00,
2013-01-13 21:33:00,28.0,24.0,29.91,NW,312,2.0,5.0,85,0.00,,,0.01,,2013-01-14 02:33:00,
2013-01-13 21:42:00,28.0,24.0,29.91,NW,312,2.0,5.0,85,0.00,,,0.01,,2013-01-14 02:42:00,
2013-01-13 21:53:00,28.0,24.0,29.91,SSW,200,0.0,7.0,84,0.00,,,0.01,,2013-01-14 02:53:00,
2013-01-13 22:03:00,28.0,24.0,29.92,West,269,0.0,9.0,84,0.00,,,0.01,,2013-01-14 03:03:00,
2013-01-13 22:12:00,28.0,24.0,29.92,West,269,0.0,9.0,84,0.00,,,0.01,,2013-01-14 03:12:00,
2013-01-13 22:22:00,28.0,24.0,29.92,WSW,251,7.0,7.0,83,0.00,,,0.01,,2013-01-14 03:22:00,
2013-01-13 22:32:00,28.0,24.0,29.92,WNW,294,6.0,10.0,83,0.00,,,0.01,,2013-01-14 03:32:00,
2013-01-13 22:42:00,28.0,24.0,29.92,WNW,294,6.0,10.0,83,0.00,,,0.01,,2013-01-14 03:42:00,
2013-01-13 22:53:00,28.0,23.0,29.93,West,281,9.0,10.0,82,0.00,,,0.01,,2013-01-14 03:53:00,
2013-01-13 23:02:00,28.0,23.0,29.94,West,270,6.0,12.0,82,0.00,,,0.01,,2013-01-14 04:02:00,
2013-01-13 23:12:00,28.0,23.0,29.94,West,270,6.0,12.0,82,0.00,,,0.01,,2013-01-14 04:12:00,
2013-01-13 23:22:00,28.0,23.0,29.94,WSW,248,7.0,14.0,80,0.00,,,0.01,,2013-01-14 04:22:00,
2013-01-13 23:32:00,27.0,21.0,29.95,WSW,249,7.0,12.0,78,0.00,,,0.01,,2013-01-14 04:32:00,
2013-01-13 23:42:00,27.0,21.0,29.95,WSW,249,7.0,12.0,78,0.00,,,0.01,,2013-01-14 04:42:00,
2013-01-13 23:52:00,27.0,21.0,29.96,WNW,291,7.0,12.0,77,0.00,,,0.01,,2013-01-14 04:52:00,